Location: Anmer
(52.8333°N, 0.5833°E)
Time: 20:21:09
(UTC+00:00)

Cosmos 1805 - Pass Details

Date: 15 May 2026
Orbit: 411 x 414 km, 82.5° (Epoch: 7 June)

Event Time Altitude Azimuth Distance (km) Brightness Sun altitude
Rises 20:29:30 0° 358° (N) 2,382 7.3 -5.7°
Reaches altitude 10° 20:31:49 10° 13° (NNE) 1,510 6.0 -5.9°
Maximum altitude 20:34:33 24° 69° (ENE) 922 4.2 -6.2°
Drops below altitude 10° 20:37:15 10° 126° (SE) 1,495 4.9 -6.5°
Enters shadow 20:37:33 - 129° (SE) 1,596 5.0 -6.5°
